STARLINK-36836, 68065

Orbit data source: Space-Track

STARLINK-36836, 68065 is a payload satellite owned by SpaceX/Seattle (US) in LEO that was launched on Mon, 02 Mar 2026 UTC via an FALCON 9 launch vehicle from the Air Force Eastern Test Range (AFETR). Payload-class satellites include a variety of spacecraft equipped with specific instruments for various scientific and technological missions. These include communications satellites like Starlink; space stations such as the ISS; scientific satellites like the Hubble; Earth observation satellites from companies like Planet Labs, Umbra, and HawkEye 360; GPS; miniature CubeSats for education and research; and military/defense satellites.

Loading next visibility...
Identifier
68065, 2026-041AB
Orbit
LEO
Country
Flag of USUS
Related business
Manufacturer
SpaceX/Seattle
Mission
Operational Commercial Communications
Bus & Motor
STARLINK V2MO, Unknown motor
Mass
575 kg wet, ~530 kg dry
Launch date (UTC)
2026-03-02 (4 months ago)
Launch vehicle
FALCON 9
Launch site
Air Force Eastern Test Range (AFETR)
Object type
Payload
Rocket body
Debris
Shape & HBR
Box + 2 Pan, 17.7 m
Radar Cross Section
36.964 m², Large (>1 m²)

Expand to show TLE details & history
Last TLE update: 1 day ago

TLE from 1 day ago
0 STARLINK-36836
1 68065U 26041AB  26170.64430634  .00025453  00000-0  76208-3 0  9999
2 68065  53.1588 295.8969 0001111  92.3522 267.7608 15.34392721 17003
Epoch: 2026-06-19T15:27Z
TLE epoch observation values (Epoch: 2026-06-19T15:27:48.067Z)
Latitude
-0.00002°
Longitude
156.07628°
Altitude
463.656 km
Speed
7.636 km/s
True Right ascension
19h 43m 35s
True Declination
0° 00' 00"
Sunlit
Object was in full shadow at epoch
Visualization orbit readout
Latitude
Unknown
Longitude
Unknown
Altitude
Unknown
Speed
Unknown
Apparent Right ascension
Unknown
Apparent Declination
Unknown
Sunlit
N/A
Visualization observer readout
Local Sidereal Time
07:19:27
Azimuth
Unknown
Elevation
Unknown
Doppler factor
Unknown
Orbital elements
Apogee altitude
463.742 km
Perigee altitude
462.222 km
Semi-major axis
6,841.119 km
Eccentricity
0.00011
Inclination
53.1588°
RAAN
295.8969°
Arg. of periapsis
92.3522°
True anomaly
267.74808°
Mean anomaly
267.7608°
Eccentric anomaly
267.75444°
Mean motion
3.83577 °/min
Orbital period
93.85 mins
BSTAR
0.00076208
Loading maneuver chart data...
Computing Atmospheric mass density...
Loading historical data...
Loading historical data...
Loading historical data...
Loading historical data...
Loading historical data...
Loading historical data...
Loading historical data...

Documentation

Showing up to 5 results
|